"TOA5","AWS1","CR1000","7964","CR1000.Std.14","CPU:AWS1_114.CR1","64363","TBL110"
"TIMESTAMP","RECORD","Wind_spd_WVc(1)","Wind_spd_WVc(2)","Air_Temp_Avg","Humidity_Avg","SW_upper_Wm2_Avg","Rain_Tot","Press_Avg","Issui_Tot","Depth_cm","SR50A_Raw","Quality","Ground_Temp_Avg(1)","Ground_Temp_Avg(2)","SW_lower_Wm2_Avg","Albedo_Avg","SWC_per(1)","SWC_per(2)","Period(1)","Period(2)"
"TS","RN","","","","","","","","","","","","","","","","","","",""
"","","WVc","WVc","Avg","Avg","Avg","Tot","Avg","Tot","Smp","Smp","Smp","Avg","Avg","Avg","Avg","Smp","Smp","Smp","Smp"
"2018-07-11 00:00:00",348829,0,0,17.9,100,0,0,872.9691,0,17.61,2.91,292,20.32,19.18,0.6821181,0,51.44,58.61,33.65,35.36
"2018-07-11 00:10:00",348830,0,0,17.97,100,0,0,872.967,0,-24.4,3.317,295,20.27,19.19,0.6783285,0,51.44,58.61,33.65,35.36
"2018-07-11 00:20:00",348831,0,0,17.91,100,0,0,872.967,0,9.11,2.993,237,20.16,19.19,0.6821181,0,51.44,58.61,33.65,35.36
"2018-07-11 00:30:00",348832,0,0,17.92,100,0,0,872.9607,0,-17.69,3.252,194,20.15,19.2,0.6821181,0,51.44,58.61,33.65,35.36
"2018-07-11 00:40:00",348833,0,0,17.9,100,0,0,872.9607,0,16.34,2.923,380,20.17,19.21,0.3941126,0,51.38,58.67,33.64,35.37
"2018-07-11 00:50:00",348834,0,0,17.84,100,0,0,872.7585,0,-17.23,3.248,195,20.22,19.22,0.3562172,0,51.38,58.67,33.64,35.37
"2018-07-11 01:00:00",348835,0,0,17.81,100,0,0,872.7142,0,14.69,2.939,400,20.18,19.22,0.5002199,0,51.38,58.61,33.64,35.36
"2018-07-11 01:10:00",348836,0,0,17.81,100,0,0,872.7142,0,-26.93,3.342,224,20.07,19.24,0.6480121,0,51.38,58.67,33.64,35.37
"2018-07-11 01:20:00",348837,0.126,37.38,17.81,100,0,0,872.7142,0,8.68,2.997,249,20.06,19.21,0.6480121,0,51.38,58.67,33.64,35.37
"2018-07-11 01:30:00",348838,0.034,164.2,17.79,100,0,0,872.5837,0,-13.87,3.216,178,20.07,19.22,0.3789544,0,51.38,58.67,33.64,35.37
"2018-07-11 01:40:00",348839,0,0,17.61,100,0,0,872.451,0,-22.7,3.302,197,20.1,19.23,0.382744,0,51.33,58.67,33.62,35.37
"2018-07-11 01:50:00",348840,0.101,126.2,17.49,100,0,0,872.2488,0,16.38,2.925,288,20.12,19.22,0.5229571,0,51.33,58.67,33.62,35.37
"2018-07-11 02:00:00",348841,0.121,114.2,17.25,100,0,0,872.0571,0,-14.53,3.225,169,20.06,19.2,0.4850617,0,51.38,58.67,33.64,35.37
"2018-07-11 02:10:00",348842,0.624,28.95,17.45,100,0,0,871.9561,0,25.94,2.831,260,19.98,19.21,0.9511757,0,51.33,58.61,33.62,35.36
"2018-07-11 02:20:00",348843,0.764,32.96,17.65,100,0,0,871.9561,0,27.43,2.816,318,19.97,19.22,0.8715953,0,51.33,58.61,33.62,35.36
"2018-07-11 02:30:00",348844,0.285,31.88,17.5,100,0,0,871.9518,0,12.06,2.968,256,19.99,19.22,0.7389612,0,51.33,58.61,33.62,35.36
"2018-07-11 02:40:00",348845,0.266,199.5,16.88,100,0,0,871.8613,0,26.85,2.826,294,20.02,19.2,0.5267467,0,51.33,58.61,33.62,35.36
"2018-07-11 02:50:00",348846,0.075,205.4,16.76,100,0,0,871.7032,0,-14.05,3.223,176,19.95,19.22,0.8109626,0,51.38,58.61,33.64,35.36
"2018-07-11 03:00:00",348847,0.017,206.8,16.75,100,0,0,871.7244,0,-26.05,3.34,221,19.89,19.22,1.16339,0,51.33,58.61,33.62,35.36
"2018-07-11 03:10:00",348848,0,0,16.66,100,0,0,871.7875,0,26.42,2.831,254,19.9,19.2,1.068651,0,51.33,58.61,33.62,35.36
"2018-07-11 03:20:00",348849,0,0,16.75,100,0,0,871.9413,0,26.11,2.833,282,19.93,19.18,1.614352,0,51.33,58.61,33.62,35.36
"2018-07-11 03:30:00",348850,0,0,16.54,100,0,0,871.9561,0,25.17,2.844,345,19.96,19.2,1.125509,0,51.27,58.61,33.61,35.36
"2018-07-11 03:40:00",348851,0,0,16.47,100,0,0,871.9728,0,18.1,2.912,278,19.85,19.2,1.337718,0,51.33,58.67,33.62,35.37
"2018-07-11 03:50:00",348852,0,0,16.45,100,0,0,871.9813,0,20.89,2.886,308,19.81,19.19,1.254342,0,51.33,58.61,33.62,35.36
"2018-07-11 04:00:00",348853,0,0,16.34,100,0,0,871.9561,0,23.3,2.862,286,19.88,19.19,1.398342,0,51.33,58.56,33.62,35.35
"2018-07-11 04:10:00",348854,0.053,19.73,16.82,100,0,0,871.9561,0,-25.64,3.332,197,19.88,19.19,1.91372,0,51.27,58.61,33.61,35.36
"2018-07-11 04:20:00",348855,0.077,12.51,17.33,100,0,0,871.9561,0,27.37,2.818,394,19.85,19.19,1.409711,0,51.33,58.56,33.62,35.35
"2018-07-11 04:30:00",348856,0.533,37.29,17.27,99.8,0,0,871.9561,0,13.62,2.952,444,19.74,19.19,0.7692776,0,51.27,58.61,33.61,35.36
"2018-07-11 04:40:00",348857,0.642,49.47,17.18,100,0,0,871.8571,0,-17.73,3.256,220,19.75,19.19,0.8526475,0,51.27,58.61,33.61,35.36
"2018-07-11 04:50:00",348858,0.579,50.76,17.2,100,0.9707809,0,871.7391,0,3.95,3.046,318,19.76,19.19,1.24676,1.115,51.27,58.56,33.61,35.35
"2018-07-11 05:00:00",348859,0.323,34.02,17.36,100,6.426019,0,871.7117,0,318,0,0,19.71,19.19,2.137303,0.351,51.27,58.61,33.61,35.36
"2018-07-11 05:10:00",348860,0.348,330.7,17.89,91.1,13.59486,0,871.8107,0,23.57,2.854,306,19.63,19.19,3.626594,0.269,51.21,58.61,33.6,35.36
"2018-07-11 05:20:00",348861,0.33,344.4,16.98,99.5,22.13931,0,871.9771,0,24.48,2.849,397,19.64,19.19,3.668279,0.167,51.27,58.61,33.61,35.36
"2018-07-11 05:30:00",348862,0.142,1.534,16.65,100,32.27552,0,872.1329,0,21.99,2.874,335,19.69,19.19,4.627034,0.143,51.27,58.56,33.61,35.35
"2018-07-11 05:40:00",348863,0.001,59.24,16.56,100,43.83056,0,872.1898,0,22.04,2.874,314,19.63,19.19,5.926847,0.135,51.21,58.56,33.6,35.35
"2018-07-11 05:50:00",348864,0.236,177,17,100,74.07804,0,872.2088,0,21.27,2.878,272,19.55,19.19,11.64148,0.156,51.21,58.56,33.6,35.35
"2018-07-11 06:00:00",348865,0.287,177.5,17.31,100,117.5627,0,872.2088,0,23.08,2.86,296,19.55,19.19,17.93591,0.153,51.27,58.5,33.61,35.33
"2018-07-11 06:10:00",348866,0.414,190.9,17.22,99.6,117.4802,0,872.2088,0,21.98,2.872,280,19.6,19.19,17.2159,0.146,51.21,58.56,33.6,35.35
"2018-07-11 06:20:00",348867,0.623,188.6,16.92,100,114.8666,0,872.2088,0,21.96,2.873,258,19.62,19.19,16.51863,0.144,51.21,58.56,33.6,35.35
"2018-07-11 06:30:00",348868,0.362,200.1,17.39,98.4,118.2741,0,872.2172,0,22.12,2.867,272,19.56,19.19,19.94058,0.168,51.27,58.56,33.61,35.35
"2018-07-11 06:40:00",348869,0.25,184.5,17.96,94.3,132.6511,0,872.373,0,24.03,2.847,229,19.46,19.19,26.89819,0.206,51.27,58.5,33.61,35.33
"2018-07-11 06:50:00",348870,0.059,203.5,18.28,97.9,160.7998,0,872.4131,0,25.03,2.836,245,19.45,19.19,20.01258,0.127,51.27,58.5,33.61,35.33
"2018-07-11 07:00:00",348871,0.45,179,18.25,93.6,75.94886,0,872.4489,0,23.12,2.856,299,19.45,19.19,11.87264,0.156,51.21,58.5,33.6,35.33
"2018-07-11 07:10:00",348872,0.291,205.5,18,100,80.7281,0,872.4615,0,22.73,2.86,246,19.47,19.19,14.04026,0.175,51.21,58.5,33.6,35.33
"2018-07-11 07:20:00",348873,0.242,196.2,18.1,100,120.5105,0,872.4573,0,22.85,2.858,256,19.49,19.19,21.26692,0.182,51.21,58.5,33.6,35.33
"2018-07-11 07:30:00",348874,0.275,199.3,18.37,98,153.1829,0,872.2909,0,21.99,2.865,229,19.48,19.19,23.09348,0.15,51.27,58.5,33.61,35.33
"2018-07-11 07:40:00",348875,0.337,198.9,18.44,99.5,174.5794,0,872.213,0,23.95,2.845,262,19.5,19.19,29.67592,0.168,51.21,58.5,33.6,35.33
"2018-07-11 07:50:00",348876,0.243,188,18.88,94.2,242.4162,0,872.2277,0,24.09,2.842,232,19.49,19.19,32.04439,0.138,51.21,58.5,33.6,35.33
"2018-07-11 08:00:00",348877,0.298,199.2,19.5,87.7,587.8766,0,872.2593,0,24.64,2.832,228,19.47,19.19,67.6699,0.117,51.21,58.44,33.6,35.32
"2018-07-11 08:10:00",348878,0.277,1.015,19.92,85.1,328.2458,0,872.2172,0,-13.13,3.198,182,19.45,19.15,44.18609,0.136,51.21,58.44,33.6,35.32
"2018-07-11 08:20:00",348879,0.296,146.9,19.51,87.2,266.8861,0,872.213,0,22.85,2.852,315,19.44,19.15,37.64533,0.14,51.21,58.44,33.6,35.32
"2018-07-11 08:30:00",348880,0.252,253.9,20.03,84.8,667.1072,0,872.2088,0,-26.24,3.319,197,19.45,19.13,99.28985,0.146,51.21,58.44,33.6,35.32
"2018-07-11 08:40:00",348881,0.203,171.3,21.05,79.88,814.5795,0,872.1962,0,-13.8,3.196,187,19.43,19.1,121.0873,0.148,51.21,58.44,33.6,35.32
"2018-07-11 08:50:00",348882,0.436,187.7,21.08,78.65,554.6461,0,872.0676,0,-16.14,3.224,188,19.41,19.05,79.76612,0.14,51.16,58.44,33.58,35.32
"2018-07-11 09:00:00",348883,0.731,276.5,19.84,81.5,274.1179,0,872.192,0,21.15,2.867,255,19.4,19.04,39.80158,0.142,51.16,58.44,33.58,35.32
"2018-07-11 09:10:00",348884,0.466,223,20.36,80.1,735.3409,0,872.2045,0,28.65,2.79,408,19.4,19,111.2951,0.148,51.21,58.44,33.6,35.32
"2018-07-11 09:20:00",348885,0.552,334.8,20.87,77.79,650.8437,0,872.1224,0,25.58,2.82,276,19.41,18.98,95.21609,0.144,51.16,58.44,33.58,35.32
"2018-07-11 09:30:00",348886,0.359,313.5,20.69,79.42,524.2413,0,871.9602,0,16.74,2.904,366,19.41,18.99,75.90457,0.14,51.16,58.38,33.58,35.31
"2018-07-11 09:40:00",348887,0.539,268.8,21.13,77.74,720.7518,0,871.9529,0,20,2.87,278,19.4,18.98,105.5729,0.144,51.16,58.38,33.58,35.31
"2018-07-11 09:50:00",348888,0.375,209,21.28,75.81,594.9904,0,871.9402,0,22.61,2.844,261,19.41,18.98,87.87575,0.146,51.1,58.38,33.57,35.31
"2018-07-11 10:00:00",348889,0.408,58.57,22.03,76.6,789.6143,0,871.8352,0,-14.08,3.193,194,19.44,18.97,118.8022,0.15,51.16,58.38,33.58,35.31
"2018-07-11 10:10:00",348890,0.582,13.37,21.73,74.75,400.7596,0,871.8821,0,20.46,2.866,226,19.49,18.98,56.28989,0.14,51.1,58.38,33.57,35.31
"2018-07-11 10:20:00",348891,0.154,195.9,21.12,79.31,306.5899,0,871.8928,0,22.35,2.849,224,19.5,18.99,42.60963,0.139,51.1,58.38,33.57,35.31
"2018-07-11 10:30:00",348892,0.175,327.9,21.11,78.52,359.7313,0,871.8886,0,21.89,2.853,241,19.45,18.94,51.39001,0.143,51.1,58.32,33.57,35.29
"2018-07-11 10:40:00",348893,0.177,315.2,21.17,78.18,416.1584,0,871.8318,0,11.84,2.949,230,19.46,18.93,60.43566,0.145,51.1,58.32,33.57,35.29
"2018-07-11 10:50:00",348894,0.227,311.7,21,79.57,279.6163,0,871.7138,0,22.14,2.853,214,19.57,18.93,37.70976,0.134,51.05,58.32,33.56,35.29
"2018-07-11 11:00:00",348895,0.238,350.2,20.77,81.5,470.023,0,871.7032,0,22.21,2.85,244,19.57,18.9,70.40594,0.148,51.05,58.32,33.56,35.29
"2018-07-11 11:10:00",348896,0.457,336.3,21.08,80.4,469.5239,0,871.7032,0,-17.33,3.23,196,19.61,18.92,70.04214,0.149,51.05,58.32,33.56,35.29
"2018-07-11 11:20:00",348897,0.216,285.1,21.22,79.63,331.0245,0,871.6591,0,10.28,2.964,224,19.66,18.9,46.24002,0.138,51.05,58.26,33.56,35.28
"2018-07-11 11:30:00",348898,0.181,346.2,21.37,77.36,523.7618,0,871.5052,0,22.51,2.845,225,19.66,18.88,77.90545,0.146,51.05,58.26,33.56,35.28
"2018-07-11 11:40:00",348899,0.318,290.8,21.79,75.01,504.8965,0,871.459,0,21.96,2.849,240,19.74,18.9,74.22202,0.144,51.05,58.26,33.56,35.28
"2018-07-11 11:50:00",348900,0.233,281.2,21.6,73.34,465.1416,0,871.4505,0,21.57,2.854,257,19.72,18.91,68.29138,0.145,50.99,58.26,33.54,35.28
"2018-07-11 12:00:00",348901,0.319,271.8,21.65,71.31,672.2206,0,871.4379,0,-19.34,3.246,198,19.79,18.88,99.93407,0.148,50.99,58.26,33.54,35.28
"2018-07-11 12:10:00",348902,0.555,272.5,21.79,69.71,686.5504,0,871.2841,0,21.96,2.849,242,19.78,18.91,100.8928,0.146,51.05,58.26,33.56,35.28
"2018-07-11 12:20:00",348903,0.456,290.3,21.75,71.51,670.6681,0,871.1978,0,318,0,0,19.79,18.86,100.1501,0.144,50.99,58.21,33.54,35.26
"2018-07-11 12:30:00",348904,0.435,302.8,22.32,72.46,582.7869,0,871.1114,0,22.05,2.846,227,19.91,18.9,86.13634,0.142,50.99,58.21,33.54,35.26
"2018-07-11 12:40:00",348905,0.321,279.6,21.92,75.11,384.4528,0,870.9451,0,22.54,2.843,241,19.95,18.87,55.5623,0.14,50.94,58.21,33.53,35.26
"2018-07-11 12:50:00",348906,0.308,283.9,22.59,68.03,873.7892,0,870.9451,0,21.84,2.846,232,19.96,18.87,132.96,0.146,50.99,58.26,33.54,35.28
"2018-07-11 13:00:00",348907,0.14,268.8,22.57,69.91,504.0475,0,870.8755,0,21.63,2.848,260,20,18.89,71.5087,0.133,50.94,58.21,33.53,35.26
"2018-07-11 13:10:00",348908,0.305,130.5,22.57,70.47,536.1108,0,870.7744,0,-24.58,3.292,204,20.05,18.89,77.09828,0.137,50.88,58.21,33.52,35.26
"2018-07-11 13:20:00",348909,0.394,276.6,22.47,69.11,630.0329,0,870.6944,0,22.56,2.839,242,20.11,18.89,92.64678,0.146,50.88,58.21,33.52,35.26
"2018-07-11 13:30:00",348910,0.455,252.3,23.19,65.28,1073.75,0,870.6547,0,25.02,2.81,370,20.13,18.9,172.8146,0.161,50.94,58.21,33.53,35.26
"2018-07-11 13:40:00",348911,0.484,310.8,23.54,63.22,633.9631,0,870.4579,0,11.89,2.939,264,20.17,18.89,89.59999,0.138,50.88,58.21,33.52,35.26
"2018-07-11 13:50:00",348912,0.389,152.6,23.49,63.08,847.6607,0,870.4389,0,-23,3.272,196,20.21,18.89,130.4323,0.152,50.83,58.15,33.5,35.25
"2018-07-11 14:00:00",348913,0.485,263.3,23.86,59.77,836.3218,0,870.4352,0,21.56,2.843,301,20.24,18.88,128.098,0.146,50.83,58.15,33.5,35.25
"2018-07-11 14:10:00",348914,0.409,223.1,24.07,60.14,998.7567,0,870.3665,0,-26.11,3.298,230,20.32,18.86,156.0496,0.155,50.88,58.15,33.52,35.25
"2018-07-11 14:20:00",348915,0.487,239,23.82,61.47,492.3824,0,870.1826,0,-21.21,3.257,194,20.41,18.86,65.32796,0.132,50.83,58.15,33.5,35.25
"2018-07-11 14:30:00",348916,0.413,308.4,22.88,61.9,341.8603,0,870.1879,0,-19.24,3.241,170,20.41,18.88,45.63369,0.134,50.77,58.09,33.49,35.24
"2018-07-11 14:40:00",348917,0.118,290.1,22.57,64.31,336.1889,0,870.1796,0,22.69,2.839,308,20.43,18.89,46.62276,0.139,50.77,58.09,33.49,35.24
"2018-07-11 14:50:00",348918,0.272,291.9,22.25,65.87,293.7182,0,870.1844,0,-19.13,3.243,170,20.55,18.89,40.58981,0.138,50.77,58.09,33.49,35.24
"2018-07-11 15:00:00",348919,0.368,321.8,22.01,68.19,273.9095,0,870.1841,0,13.25,2.932,251,20.62,18.9,38.50177,0.141,50.77,58.09,33.49,35.24
"2018-07-11 15:10:00",348920,0.152,278.9,21.95,68.54,264.4101,0,870.1825,0,22.33,2.845,257,20.66,18.93,37.19817,0.141,50.77,58.03,33.49,35.22
"2018-07-11 15:20:00",348921,0.141,209.5,21.78,69.67,234.4888,0,870.1636,0,21.17,2.857,360,20.7,18.98,32.50671,0.139,50.72,58.03,33.47,35.22
"2018-07-11 15:30:00",348922,0.33,285.3,21.54,71.72,244.7979,0,870.1868,0,10.19,2.964,219,20.79,18.98,34.96613,0.143,50.72,58.03,33.47,35.22
"2018-07-11 15:40:00",348923,0.23,267.3,21.51,72.67,245.9141,0,870.1868,0,11.6,2.95,224,20.81,18.97,35.64445,0.145,50.72,58.03,33.47,35.22
"2018-07-11 15:50:00",348924,0.184,225.5,21.64,73.62,220.6856,0,870.1868,0,-21.79,3.272,179,20.85,18.97,31.5707,0.143,50.72,58.03,33.47,35.22
"2018-07-11 16:00:00",348925,0.18,186.5,21.41,77.62,176.4502,0,870.1868,0,12.2,2.944,219,20.81,18.97,24.49562,0.139,50.72,57.97,33.47,35.21
"2018-07-11 16:10:00",348926,0.013,243,21.43,75.98,127.4003,0,870.2057,0,15.37,2.915,292,20.86,18.96,16.46557,0.129,50.72,57.97,33.47,35.21
"2018-07-11 16:20:00",348927,0.034,162.9,21.09,78.89,124.0163,0,870.191,0,14.53,2.924,265,20.96,18.99,16.10935,0.13,50.66,57.97,33.46,35.21
"2018-07-11 16:30:00",348928,0.008,31.71,21.03,79.29,116.5645,0,870.1868,0,14.16,2.928,252,20.98,19.02,14.93838,0.128,50.72,57.97,33.47,35.21
"2018-07-11 16:40:00",348929,0.071,310.2,20.76,81,97.1056,0,870.1868,0,11.58,2.955,204,20.95,19.06,12.13791,0.125,50.66,57.97,33.46,35.21
"2018-07-11 16:50:00",348930,0.109,348,20.46,83.5,67.27866,0,870.1088,0,12.29,2.949,222,20.95,19.1,7.939095,0.118,50.66,57.91,33.46,35.2
"2018-07-11 17:00:00",348931,0.234,299.7,20.15,84.8,48.15387,0,869.9804,0,11.73,2.956,219,21,19.1,5.66158,0.118,50.66,57.91,33.46,35.2
"2018-07-11 17:10:00",348932,0.212,292.4,19.99,85.2,69.77045,0,870.0246,0,11.74,2.957,213,21.05,19.1,9.917237,0.141,50.61,57.91,33.45,35.2
"2018-07-11 17:20:00",348933,0.1,359.5,20,86.6,82.25697,0,870.1005,0,-16.97,3.233,187,21.1,19.1,12.07349,0.147,50.61,57.91,33.45,35.2
"2018-07-11 17:30:00",348934,0.033,25.36,20.08,86.5,90.21581,0,870.1868,0,24.26,2.835,360,21.09,19.12,13.40362,0.148,50.66,57.97,33.46,35.21
"2018-07-11 17:40:00",348935,0.16,187.1,19.97,88.3,96.81869,0,869.9593,0,12.39,2.95,224,21.08,19.13,14.21079,0.147,50.61,57.91,33.45,35.2
"2018-07-11 17:50:00",348936,0.098,22.69,19.95,89.3,71.63734,0,869.9383,0,-19.44,3.258,192,21.06,19.15,9.712603,0.135,50.61,57.91,33.45,35.2
"2018-07-11 18:00:00",348937,0.25,356.7,19.72,91.2,48.00452,0,870.0183,0,-19.16,3.257,179,21.08,19.19,5.942006,0.124,50.61,57.86,33.45,35.18
"2018-07-11 18:10:00",348938,0.133,304.2,19.51,93.6,28.86796,0,870.1173,0,-19.06,3.257,184,21.1,19.2,3.32722,0.113,50.55,57.91,33.43,35.2
"2018-07-11 18:20:00",348939,0.055,276.5,19.46,98.5,14.18834,0,870.1889,0,22.73,2.853,263,21.11,19.19,1.205075,0.085,50.55,57.91,33.43,35.2
"2018-07-11 18:30:00",348940,0.049,32.72,19.39,99,9.169359,0,870.2795,0,22.01,2.861,254,21.11,19.19,0.6555912,0.072,50.61,57.91,33.45,35.2
"2018-07-11 18:40:00",348941,0.183,316.7,19.13,100,12.41185,0,870.309,0,21.15,2.87,282,21.11,19.19,1.758349,0.14,50.55,57.91,33.43,35.2
"2018-07-11 18:50:00",348942,0.048,348.3,19.1,100,10.86724,0,870.429,0,20.42,2.877,282,21.11,19.19,1.671189,0.154,50.55,57.86,33.43,35.18
"2018-07-11 19:00:00",348943,0.028,309.8,19.13,100,3.69054,0,870.4395,0,21.58,2.866,270,21.11,19.2,0.5229571,0.132,50.55,57.86,33.43,35.18
"2018-07-11 19:10:00",348944,0.216,303.5,18.95,100,0.3890984,0,870.5723,0,21.94,2.863,250,21.08,19.26,0.1136863,0.235,50.61,57.86,33.45,35.18
"2018-07-11 19:20:00",348945,0.01,278,18.89,100,0,0,870.7007,0,21.36,2.869,316,21,19.27,0,0,50.55,57.86,33.43,35.18
"2018-07-11 19:30:00",348946,0.049,316.6,18.8,100,0,0,870.8713,0,20.97,2.873,277,20.98,19.3,0.02273727,0,50.55,57.86,33.43,35.18
"2018-07-11 19:40:00",348947,0.009,314.2,18.66,100,0,0,870.9451,0,20.87,2.875,248,20.98,19.29,0,0,50.55,57.86,33.43,35.18
"2018-07-11 19:50:00",348948,0.024,283.3,18.58,100,0,0,870.9451,0,20.3,2.881,258,20.98,19.28,0.16674,0,50.55,57.8,33.43,35.17
"2018-07-11 20:00:00",348949,0.048,238,18.56,100,0,0,870.9492,0,22.56,2.858,244,21.01,19.28,0.3562172,0,50.55,57.8,33.43,35.17
"2018-07-11 20:10:00",348950,0,0,18.64,100,0,0,871.1536,0,21.9,2.865,248,21.02,19.28,0.3372695,0,50.55,57.8,33.43,35.17
"2018-07-11 20:20:00",348951,0,0,18.55,100,0,0,871.3094,0,22.2,2.863,238,20.99,19.31,0.4282185,0,50.55,57.8,33.43,35.17
"2018-07-11 20:30:00",348952,0.122,303.9,18.47,100,0,0,871.4505,0,21.42,2.871,239,20.91,19.35,0.2311622,0,50.55,57.8,33.43,35.17
"2018-07-11 20:40:00",348953,0.095,288.6,18.39,100,0,0,871.4505,0,22.22,2.863,237,20.92,19.4,0.4016917,0,50.5,57.8,33.42,35.17
"2018-07-11 20:50:00",348954,0.081,311.5,18.31,100,0,0,871.4758,0,22.08,2.865,292,20.93,19.41,0.5153781,0,50.5,57.74,33.42,35.16
"2018-07-11 21:00:00",348955,0.096,37.27,18.24,100,0,0,871.5264,0,21.71,2.868,305,20.93,19.41,0.6176957,0,50.55,57.74,33.43,35.16
"2018-07-11 21:10:00",348956,0.044,207.7,18.34,100,0,0,871.6043,0,15.99,2.924,313,20.97,19.41,0.6783285,0,50.55,57.74,33.43,35.16
"2018-07-11 21:20:00",348957,0.023,196.1,18.11,100,0,0,871.4653,0,22.21,2.865,308,20.94,19.41,0.3334799,0,50.5,57.74,33.42,35.16
"2018-07-11 21:30:00",348958,0.151,65.23,18.08,100,0,0,871.4505,0,21.46,2.871,304,20.91,19.4,0.7616985,0,50.5,57.74,33.42,35.16
"2018-07-11 21:40:00",348959,0.387,204.7,18.19,99.2,0,0,871.2841,0,21.44,2.871,262,20.85,19.37,0.8412789,0,50.5,57.68,33.42,35.14
"2018-07-11 21:50:00",348960,0.309,228.8,18.35,94.3,0,0.5,871.1978,0,22.28,2.862,249,20.85,19.36,1.008019,0,50.5,57.74,33.42,35.16
"2018-07-11 22:00:00",348961,0.349,332,18.47,91.3,0,0,871.1178,0,21.89,2.866,247,20.88,19.38,1.106547,0,50.5,57.68,33.42,35.14
"2018-07-11 22:10:00",348962,0.491,32.92,18.27,97.1,0,0,871.004,0,20.86,2.877,249,20.85,19.39,0.6328539,0,50.5,57.68,33.42,35.14
"2018-07-11 22:20:00",348963,0.442,49.96,18.21,97.9,0,0,870.8945,0,24.72,2.839,303,20.76,19.45,0.7806462,0,50.5,57.68,33.42,35.14
"2018-07-11 22:30:00",348964,0.238,330.3,18.6,87.3,0,0,870.8356,0,21.64,2.868,332,20.76,19.5,1.227812,0,50.5,57.62,33.42,35.13
"2018-07-11 22:40:00",348965,0.17,315.8,18.13,97,0,0,870.8903,0,20.1,2.885,294,20.77,19.54,0.3296904,0,50.5,57.68,33.42,35.14
"2018-07-11 22:50:00",348966,0,0,17.92,100,0,0,870.7807,0,22.18,2.866,250,20.8,19.53,0.2501099,0,50.5,57.62,33.42,35.13
"2018-07-11 23:00:00",348967,0.335,34.3,17.74,100,0,0,870.8356,0,24.08,2.848,260,20.71,19.54,0.3903231,0,50.5,57.62,33.42,35.13
"2018-07-11 23:10:00",348968,0.459,32.39,17.98,100,0,0,870.766,0,23.66,2.851,296,20.67,19.54,0.6821181,0,50.5,57.68,33.42,35.14
"2018-07-11 23:20:00",348969,0.269,49.23,18.04,100,0,0,870.6755,0,-20.78,3.281,194,20.67,19.54,0.6821181,0,50.5,57.62,33.42,35.13
"2018-07-11 23:30:00",348970,0.546,329.5,17.97,100,0,0,870.6649,0,21.85,2.869,281,20.69,19.54,0.557063,0,50.5,57.62,33.42,35.13
"2018-07-11 23:40:00",348971,0.142,322.7,17.82,100,0,0,870.488,0,-16.63,3.242,202,20.65,19.54,0.3334799,0,50.44,57.56,33.41,35.12
"2018-07-11 23:50:00",348972,0.201,58.82,17.92,100,0,0,870.4248,0,-17.3,3.248,197,20.59,19.54,0.4964303,0,50.44,57.56,33.41,35.12
